Terminal Aerodrome Forecast
Issued by NWS Paducah, KY

Home | Current Version | Previous Version | Text Only | Print | Product List | Glossary On
Versions: 1 2 3 4 5 6 7 8 9 10 11 12 13 14 15 16
000
FTUS43 KPAH 282339
TAFEVV
TAF
KEVV 282339Z 0100/0124 07004KT P6SM OVC080
     FM010300 09002KT 4SM -FZRASN BR BKN015 OVC035
     FM010900 00000KT 2SM -FZRA BR OVC008
     FM011400 30006KT 3SM -DZ BR OVC006=

USA.gov is the U.S. government's official web portal to all federal, state and local government web resources and services.